Погода Шамахы

Погода Шамахы : погода сейчас, прогноз погоды и архив. Всё, что Вы хотите узнать о погоде Шамахы!

Поиск расширенной информации на нашем сайте:

Другие новости

Новости СМИ2

Главная страница сайта

Новости сайта

02.10.2013

Напоминаем, что на нашем новом сайте вы можете получить высокодетализированные прогнозы погоды по пунктам России, СНГ и мира (включающие важные для авиации метеовеличины, такие как направление и скорость ветра, видимость, явления погоды, количество и форма облачности, нижняя и верхняя граница облачности), а также ознакомиться с разнообразными материалами по авиационной метеорологии и подборкой полезных ссылок на эту тему.

Сайт Метеоцентр.Азия посвящён разработке технологий оптимизации авиаметеорологического обслуживания, включая проектирование и перспективное создание нескольких автоматизированных авиаметеорологических систем:
- система выпуска высокодетальных прогностических карт явлений погоды для нижнего воздушного пространства по России и ближнему зарубежью;
- система верификации прогнозов TAF (выпускаемых синоптиками официальных АМСГ РФ и ближнего зарубежья) и AUTOTAF (выпускаемых сайтом Метеоцентр.Азия) - выявление ошибок, онлайн-сопоставление с фактической погодой METAR, автоматическое внесение коррективов в прогнозы при резком отклонении фактической погоды от прогноза, подсчёт оправдываемости прогнозов по элементам и в целом;
- система обработки, анализа и отображения авиаметеорологической информации для применения провайдерами метеорологической информации.


Погода Шамахы - сегодня

Время (UTC), дата Ветер
(°,м/с) 
Видим.   Явления Облачность Т
(°С)
Тd
(°С)
f(%) Тe
(°С)
Pmin
(гПа)
dP
(гПа)
Po
(мм)
O2
(г/м3)
Тmin Tmax R s Состояние
почвы
12 26.05.17 230 (ЮЗ) 20000 м    10/10 600 м 
[Sc]
+15.6 +12 79 +22  1018.3  -1  692  261           
15 26.05.17 180 (Ю) 20000 м    8/8 600 м 
[Sc]
+15.9 +11.9 77 +23  1014.9  -2.9  690  260           
18 26.05.17 240 (ЮЗ) 20000 м    10/10 600 м 
[Sc]
+14.7 +12.3 86 +22  1017.3  1.8  691  262    +16.5       
21 26.05.17 200 (Ю) 1000 м  дымка  10/10 600 м 
[Sc]
+12.6 +11.9 95 +20  1017.5  -0.1  691  264           
00 27.05.17 260 (З) 4000 м  дымка  10/10 600 м 
[Sc]
+12.3 +11.8 97 +20  1016.5  -1.4  690  264           
03 27.05.17 150 (ЮВ) 95  9000 м  дымка  10/10 1500 м 
[Sc]
+12.5 +11.3 92 +11  1016.3  -0.2  690  264           
09 27.05.17 200 (Ю) 20000 м  {туман}  10/10 600 м 
[Sc]
+16.3 +14.2 87 +27  1015.3  -0.9  690  259           
12 27.05.17 200 (Ю) 20000 м    10/10 600 м 
[Sc]
+19.1 +14.1 73 +30  1013.5  -1.1  689  257           
15 27.05.17 340 (С) 20000 м    8/8 600 м 
[Sc]
+18.5 +13.6 73 +28  1012.8  -0.7  689  257           
21 27.05.17 180 (Ю) 20000 м    10/10 600 м 
[Sc]
+15.2 +13 87 +24  1014.4  689  260           
00 28.05.17 200 (Ю) 10 км  слаб. дождь  10/10 300 м 
[Ns]
+13.7 +12.9 95 +21  1014  -0.4  689  262           
06 28.05.17 230 (ЮЗ) 20000 м  {туман}  8/8 600 м 
[Sc]
+16.3 +14 86 +26  1015.5  1.2  690  259           
09 28.05.17 190 (Ю) 20000 м    6/6 600 м 
[Sc]
+20.7 +13.8 65 +30  1014.3  0.2  690  256           
12 28.05.17 210 (ЮЗ) 20000 м    6/6 600 м 
[Sc]
+22.7 +13.6 56 +31  1012.8  -0.9  690  254           
15 28.05.17 230 (ЮЗ) 20000 м    6/6 600 м 
[Sc]
+20.8 +13.1 61 +28  1014.1  0.7  690  256           
21 28.05.17 230 (ЮЗ) 20000 м  {ливн. осадки}  10/10 600 м 
[Sc]
+14.1 +12.1 88 +21  1016.6  0.3  691  262           
00 29.05.17 270 (З) 20000 м    ясно 
+12.6 +9.7 82 +16  1018  0.7  691  264           
03 29.05.17 230 (ЮЗ) 20000 м    4/4 1000 м 
[Cu med, cong]
+15 +10.9 76 +20  1019.5  1.6  692  262         
06 29.05.17 180 (Ю) 20000 м    8/8 1000 м верхняя 
[Cu med, cong|Ci fib]
+18.8 +11.5 63 +25  1020.3  2.2  694  259           
09 29.05.17 170 (Ю) 20000 м    6/6 1000 м 
[Cu med, cong]
+20.3 +14.1 68 +29  1020.4  0.8  695  258           
12 29.05.17 250 (З) 20000 м    5/5 1000 м 
[Cu med, cong]
+21.7 +12 54 +27  1020.1  0.3  695  257           
15 29.05.17 120 (ЮВ) 20000 м    10/10 600 м 
[Sc]
+18.2 +12.1 68 +25  1021.2  -0.2  695  260           
18 29.05.17 тихо ()   20000 м    4/4 1000 м 
[Cu hum]
+15.6 +10.7 73 +19  1023.6  695  263    +22.2       
21 29.05.17 260 (З) 20000 м    ясно 
+15 +10.3 73 +19  1023.6  695  264           
00 30.05.17 290 (З) 20000 м    ясно 
+14.2 +8.9 70 +16  1022.4  -1.2  695  264           
Время (UTC), дата Ветер
(°,м/с) 
Видим.   Явления Облачность Т
(°С)
Тd
(°С)
f(%) Тe
(°С)
Pmin
(гПа)
dP
(гПа)
Po
(мм)
O2
(г/м3)
Тmin Tmax R s Состояние
почвы

Для получения пояснительной информации подведите курсор к названию столбца.

ПОГОДА Шамахы - архив

Всё, что Вы хотите узнать о погоде Шамахы - удобно и подробно!

Выберите нужную дату (начиная с 1 января 2015* года) и нажмите кнопку "Найти".
Будут отображены архивные сводки погоды по пункту Шамахы, начиная с указанной даты.


Отображать данные в формате CSV (для использования в таблицах Excel)


Внимание! Наш архив погоды предназначен исключительно для личного некоммерческого использования в познавательных целях. Если Вам необходимы официальные справки о состоянии погоды (для производственных, юридических, коммерческих и т.п. целей), обращайтесь в органы Росгидромета.

*Примечание: данная дата относится к архиву по метеостанциям СССР (Россия, СНГ, Балтия).
Архив по метеостанциям Зарубежной Европы и Азии (кроме Китая) хранится 10 дней, по другим регионам земного шара (Китай, Африка, Америка, Австралия, Океания) - 1 день.

Шамахы - район местоположения метеостанции


Название, широта, долгота, высота метеостанции:
Шамахы 40.6°ш. 48.6°д. 749 м над ур. моря [Азербайджан]

Дополнительная информация

В oтличие oт бoльшинства пoгoдных сайтoв мы публикуем пoдрoбную метеoинфoрмацию в детальнoм прoфессиoнальнoм фoрмате.

Характеристики температуры и влажнoсти вoздуха измеряются на высoте 2 м в тени вдали oт зданий и деревьев.
Скoрoсть ветра измеряется на высoте 10 м (на урoвне рoста челoвека скoрoсть ветра ниже в 1.5-2 раза). Если метеoстанция нахoдится в гoрoде или в лесу, тo скoрoсть ветра занижена на 2-4 м/с пo сравнению с oткрытым местoм. Скoрoсть ветра над акватoриями крупных рек и oзёр, а также на вершинах хoлмoв на 2-5 м/с выше, чем в oбычных услoвиях.
Атмoсфернoе давление в разных тoчках местнoсти мoжет значительнo oтличаться oт давления на метеoстанции, в зависимoсти oт услoвий рельефа (при пoдъёме на 10 м давление пoнижается примернo на 1 мм рт.ст.).